User: anonymous   Login
Location: Wayah Bald
(35.1806°N, 83.5603°W)
Time: 07:37:55
(UTC-04:00)
Language:

Meteor 1-27 Rocket - Orbit

View from above orbital plane
View from above orbital plane
View from above satellite
View from above satellite

Ground track
Ground track

The orbit data is extracted from the following two-line orbital elements,

1 09904U 77024B   16182.84278156  .00000083  00000-0  42275-4 0  9996
2 09904  81.2633 109.3379 0054278 237.0195 122.5750 14.06826502 13394
Epoch (UTC): 30 June 2016 20:13:36
Eccentricity: 0.0054278
inclination: 81.2633°
perigee height: 831 km
apogee height: 909 km
right ascension of ascending node: 109.3379°
argument of perigee: 237.0195°
revolutions per day: 14.06826502
mean anomaly at epoch: 122.5750°
orbit number at epoch: 1339

The dashed part of the orbit path shows where the satellite is in the earth's shadow,  

DLR